This is the latest recevied weather packets stored in our database for station/object KM4CBK. If no packets are shown the sender has not sent any weather packets the latest 10 day(s).
| Time | Temp. | Humidity | Pressure | Rain* | Wind** | Luminosity | Snow |
|---|---|---|---|---|---|---|---|
| 1778027038 | 23.33° C | 70% | 1011.1 hPa | 0 mm | - | 0 W/m² | - |
| 1778026734 | 23.33° C | 70% | 1011.1 hPa | 0 mm | - | 2 W/m² | - |
| 1778026431 | 23.33° C | 71% | 1011 hPa | 0 mm | - | 5 W/m² | - |
| 1778026128 | 23.89° C | 69% | 1010.8 hPa | 0 mm | - | 7 W/m² | - |
| 1778025826 | 23.89° C | 66% | 1010.8 hPa | 0 mm | - | 9 W/m² | - |
| 1778025522 | 23.89° C | 66% | 1010.9 hPa | 0 mm | - | 12 W/m² | - |
| 1778025220 | 24.44° C | 66% | 1010.8 hPa | 0 mm | - | 12 W/m² | - |
| 1778024916 | 24.44° C | 65% | 1011 hPa | 0 mm | - | 16 W/m² | - |
| 1778024614 | 25° C | 63% | 1011.1 hPa | 0 mm | - | 17 W/m² | - |
| 1778024311 | 25° C | 63% | 1011.1 hPa | 0 mm | - | 23 W/m² | - |
| 1778024009 | 25° C | 61% | 1011.2 hPa | 0 mm | - | 29 W/m² | - |
| 1778023706 | 25.56° C | 63% | 1011.2 hPa | 0 mm | - | 28 W/m² | - |
| 1778023404 | 25.56° C | 60% | 1011 hPa | 0 mm | - | 34 W/m² | - |
| 1778023100 | 25.56° C | 61% | 1011.4 hPa | 0 mm | - | 55 W/m² | - |
| 1778022798 | 25.56° C | 59% | 1011.2 hPa | 0 mm | - | 48 W/m² | - |
| 1778022496 | 26.11° C | 61% | 1011.2 hPa | 0 mm | - | 61 W/m² | - |
| 1778022193 | 26.11° C | 61% | 1011.1 hPa | 0 mm | - | 91 W/m² | - |
| 1778021889 | 26.11° C | 60% | 1011.4 hPa | 0 mm | - | 84 W/m² | - |
| 1778021587 | 26.11° C | 60% | 1011.3 hPa | 0 mm | - | 65 W/m² | - |
| 1778021281 | 26.11° C | 59% | 1011.1 hPa | 0 mm | - | 71 W/m² | - |
| 1778020979 | 25.56° C | 59% | 1011.4 hPa | 0 mm | - | 73 W/m² | - |
| 1778020677 | 26.11° C | 60% | 1011.4 hPa | 0 mm | - | 72 W/m² | - |
| 1778020373 | 26.11° C | 58% | 1011.2 hPa | 0 mm | - | 83 W/m² | - |
| 1778020069 | 26.11° C | 57% | 1011 hPa | 0 mm | - | 92 W/m² | - |
| 1778019766 | 26.11° C | 59% | 1011.3 hPa | 0 mm | - | 97 W/m² | - |
* Rain latest hour (hover to see other rain measurements)
** Current wind speed in m/s (hover to see current wind gust speed)